{"data":{"norad_id":65210,"epoch":"2026-05-25T00:35:19.932864Z","epoch_age_seconds":63000,"freshness":"FRESH","line1":"1 65210U 25176N   26145.02453626  .00012693  00000+0  38610-3 0  9992","line2":"2 65210  53.1605 157.7369 0001317  88.3668 271.7485 15.34405989 44814","mean_motion":15.34405989,"eccentricity":0.0001317,"inclination_deg":53.1605,"raan_deg":157.7369,"arg_perigee_deg":88.3668,"mean_anomaly_deg":271.7485,"bstar":0.0003861,"rev_number":4481,"period_min":93.847391780481,"perigee_km":461.78450337957,"apogee_km":463.58637601019,"semimajor_km":6840.8224396949,"source":"CELESTRAK","updated_at":"2026-05-25T13:38:20.720130Z"}}